Probability
0 0 0 0 0 0 0 0 0 0 0 0 0 0 0 0 0 0 0 0 0 0 0 0 0 0 0 0 0 0 0 0 0 0 0 0 0 0
0 0 0 0 0 0 0 0 0 0 0 0 0 0 0 0 0 0 0 0 0 0 0 0 0 0 0 0 0 0 0 0 0 0 0 0 0 0
0 0 0 0 0 0 0 0 0 0 0 0 0 0 0 0 0 0 0 0 0 0 0 0 0 0 0 0 0 0 0 0 0 0 0 0 0 0
0 0 0 0 0 0 0 0 0 0 0 0 0 0 0 0 0 0 0 0 0 0 0 0 0 0 0 0 0 0 0 0 0 0 0 0 0 0
0 0 0 0 0 0 0 0 0 0 0 0 0 0 0 0 0 0 0 0 0 0 0 0 0 0 0 0 0 0 0 0 0 0 0 0 0 0
0 0 0 0 0 0 0 0 0 0 0 0 0 0 0 0 0 0 0 0 0 0 0 0 0 0 0 0 0 0 0 0 0 0 0 0 0 0
0 0 0 0 0 0 0 0 0 0 0 0 0 0 0 0 0 0 0 0 0 0 0 0 0 0 0 0 0 0 0 0 0 0 0 0 0 0
0 0 0 0 0 0 0 0 0 0 0 0 0 0 0 0 0 0 0 0 0 0 0 0 0 0 0 0 0 0 0 0 0 0 0 0 0 0
0 0 0 0 0 0 0 0 0 0 0 0 0 0 0 0 0 0 0 0 0 0 0 0 0 0 0 0 0 0 0 0 0 0 0 0 0 0
0 0 0 0 0 0 0 0 0 0 0 0 0 0 0 0 0 0 0 0 0 0 0 0 0 0 0 0 0 0 0 0 0 0 0 0 0 0
0 0 0 0 0 0 0 0 0 0 0 0 0 0 0 0 0 0 0 0 0 0 0 0 0 0 0 0 0 0 0 0 0 0 0 0 0 0
0 0 0 0 0 0 0 0 0 0 0 0 0 0 0 0 0 0 0 0 0 0 0 0 0 0 0 0 0 0 0 0 0 0 0 0 0 0
0 0 0 0 0 0 0 0 0 0 0 0 0 0 0 0 0 0 0 0 0 0 0 0 0 0 0 0 0 0 0 0 0 0 0 0 0 0
0 0 0 0 0 0 0 0 0 0 0 0 0 0 0 0 0 0 0 0 0 0 0 0 0 0 0 0 0 0 0 0 0 0 0 0 0 0
0 0 0 0 0 0 0 0 0 0 0 0 0 0 0 0 0 0 0 0 0 0 0 0 0 0 0 0 0 0 0 0 0 0 0 0 0 0
0 0 0 0 0 0 0 0 0 0 0 0 0 0 0 0 0 0 0 0 0 0 0 0 0 0 0 0 0 0 0 0 0 0 0 0 0 0
0 0 0 0 0 0 0 0 0 0 0 0 0 0 0 0 0 0 0 0 0 0 0 0 0 0 0 0 0 0 0 0 0 0 0 0 0 0
0 0 0 0 0 0 0 0 0 0 0 0 0 0 0 0 0 0 0 0 0 0 0 0 0 0 0 0 0 0 0 0 0 0 0 0 0 0
0 0 0 0 0 0 0 0 0 0 0 0 0 0 0 0 0 0 0 0 0 0 0 0 0 0 0 0 0 0 0 0 0 0 0 0 0 0
0 0 0 0 0 0 0 0 0 0 0 0 0 0 0 0 0 0 0 0 0 0 0 0 0 0 0 0 0 0 0 0 0 0 0 0 0 0
0 0 0 0 0 0 0 0 0 0 0 0 0 0 0 0 0 0 0 0 0 0 0 0 0 0 0 0 0 0 0 0 0 0 0 0 0 0
0 0 0 0 0 0 0 0 0 0 0 0 0 0 0 0 0 0 0 0 0 0 0 0 0 0 0 0 0 0 0 0 0 0 0 0 0 0
0 0 0 0 0 0 0 0 0 0 0 0 0 0 0 0 0 0 0 0 0 0 0 0 0 0 0 0 0 0 0 0 0 0 0 0 0 0
Height
5590 5585 5581 5577 5572 5568 5564 5561 5557 5556 5558 5558 5554 5551 5546 5543 5541 5539 5538 5537 5535 5533 5532 5531 5530 5528 5527 5527 5526 5526 5525 5526 5526 5526 5527 5528 5530 5532
5569 5565 5561 5557 5552 5548 5544 5540 5536 5533 5535 5539 5534 5530 5525 5523 5521 5519 5518 5516 5514 5512 5511 5510 5509 5507 5506 5505 5504 5504 5503 5503 5503 5503 5503 5503 5504 5505
5549 5545 5542 5537 5532 5528 5523 5520 5516 5513 5512 5516 5512 5508 5505 5502 5500 5498 5497 5495 5494 5492 5490 5489 5487 5486 5485 5483 5482 5481 5480 5480 5479 5479 5478 5479 5479 5480
5529 5524 5521 5516 5512 5508 5503 5500 5496 5493 5492 5493 5492 5488 5485 5482 5480 5478 5477 5475 5474 5472 5469 5468 5466 5465 5463 5462 5460 5459 5458 5456 5455 5455 5454 5454 5454 5453
5508 5503 5500 5494 5491 5487 5482 5479 5476 5473 5471 5471 5472 5468 5465 5462 5460 5458 5456 5455 5453 5451 5449 5447 5445 5443 5442 5440 5438 5436 5435 5433 5432 5431 5429 5428 5428 5427
5487 5483 5478 5473 5470 5466 5462 5460 5457 5454 5452 5451 5451 5449 5445 5442 5440 5439 5437 5435 5433 5431 5429 5427 5425 5423 5421 5418 5416 5414 5412 5410 5408 5407 5405 5404 5402 5401
5466 5462 5457 5453 5449 5445 5443 5440 5437 5435 5432 5431 5430 5428 5426 5423 5421 5418 5417 5415 5414 5411 5409 5408 5405 5403 5400 5396 5393 5391 5389 5387 5385 5383 5381 5379 5378 5376
5446 5441 5436 5432 5429 5425 5423 5421 5419 5416 5414 5412 5411 5409 5408 5404 5401 5398 5397 5396 5396 5394 5389 5388 5384 5382 5379 5375 5372 5369 5366 5363 5361 5359 5357 5355 5353 5351
5426 5421 5417 5413 5409 5407 5404 5402 5400 5398 5396 5394 5392 5391 5388 5385 5381 5380 5377 5376 5376 5373 5369 5369 5365 5362 5358 5354 5350 5347 5344 5341 5339 5336 5334 5331 5329 5327
5407 5402 5399 5396 5392 5389 5386 5384 5382 5379 5377 5375 5374 5372 5369 5366 5363 5361 5359 5357 5357 5354 5349 5348 5345 5342 5338 5334 5330 5326 5322 5319 5316 5314 5311 5308 5305 5303
5389 5385 5381 5379 5375 5371 5370 5368 5366 5363 5359 5357 5355 5353 5351 5348 5345 5343 5341 5339 5339 5336 5331 5328 5326 5321 5319 5315 5310 5305 5301 5298 5294 5291 5288 5285 5282 5279
5372 5368 5365 5362 5359 5355 5353 5352 5349 5346 5343 5340 5338 5335 5333 5330 5327 5325 5323 5321 5320 5318 5313 5308 5306 5301 5300 5298 5292 5286 5281 5277 5273 5270 5266 5263 5260 5257
5356 5353 5349 5345 5343 5340 5337 5335 5333 5329 5327 5324 5322 5319 5316 5314 5311 5308 5306 5303 5301 5300 5296 5290 5288 5284 5281 5280 5276 5270 5264 5259 5254 5250 5247 5243 5240 5237
5340 5337 5334 5330 5327 5324 5322 5319 5316 5314 5311 5309 5306 5304 5301 5298 5295 5292 5290 5287 5285 5283 5279 5274 5272 5268 5264 5262 5259 5254 5247 5241 5236 5232 5229 5225 5222 5220
5325 5322 5319 5316 5312 5309 5307 5304 5301 5299 5296 5294 5292 5289 5286 5283 5280 5278 5275 5272 5270 5267 5263 5259 5256 5252 5248 5245 5241 5237 5231 5226 5219 5215 5212 5209 5207 5205
5311 5308 5305 5301 5298 5296 5293 5290 5287 5284 5282 5279 5277 5274 5272 5269 5266 5264 5261 5258 5256 5253 5249 5244 5240 5236 5233 5228 5224 5220 5214 5209 5205 5199 5196 5194 5192 5191
5298 5295 5291 5288 5285 5282 5279 5276 5273 5271 5268 5266 5264 5261 5259 5256 5253 5250 5248 5245 5242 5240 5235 5230 5225 5221 5217 5213 5208 5203 5198 5193 5188 5184 5181 5180 5179 5178
5285 5282 5279 5276 5273 5270 5267 5264 5261 5258 5255 5253 5251 5249 5246 5243 5241 5238 5235 5232 5229 5226 5222 5217 5212 5207 5203 5199 5193 5187 5182 5178 5174 5170 5167 5166 5167 5166
5274 5271 5267 5264 5261 5258 5255 5252 5249 5246 5244 5241 5239 5237 5234 5231 5228 5225 5222 5219 5216 5212 5208 5203 5198 5193 5189 5186 5181 5172 5167 5163 5160 5157 5155 5154 5155 5156
5263 5259 5256 5253 5249 5246 5243 5240 5238 5235 5233 5230 5228 5225 5222 5219 5216 5213 5210 5206 5203 5199 5195 5190 5185 5180 5175 5171 5167 5161 5153 5149 5147 5145 5145 5144 5145 5146
5253 5249 5245 5242 5238 5235 5232 5230 5227 5225 5222 5220 5217 5214 5211 5208 5205 5202 5198 5194 5190 5186 5183 5178 5173 5167 5162 5158 5154 5150 5143 5138 5136 5135 5135 5135 5137 5138
5243 5239 5235 5231 5228 5225 5222 5220 5217 5214 5212 5209 5206 5204 5200 5197 5194 5190 5186 5183 5179 5175 5171 5166 5161 5156 5151 5147 5142 5139 5134 5130 5127 5126 5127 5128 5129 5133
5234 5229 5226 5222 5219 5216 5213 5210 5207 5205 5202 5199 5196 5193 5190 5187 5183 5179 5175 5172 5168 5164 5160 5155 5151 5146 5141 5136 5132 5129 5126 5123 5121 5120 5121 5122 5124 5127
Wind_Speed
70 71 71 71 71 71 71 72 72 71 69 67 67 67 69 70 70 69 68 68 68 68 67 67 67 66 66 67 67 68 68 69 69 70 71 72 74 75
70 70 69 69 70 70 70 71 71 72 69 66 67 68 69 69 70 69 69 69 68 68 68 68 67 66 67 67 68 68 69 69 70 71 71 72 74 75
69 69 68 68 69 69 69 69 69 68 66 64 64 65 66 67 68 68 68 67 67 68 68 67 67 67 67 67 68 68 69 70 70 71 71 72 73 75
68 69 68 68 69 69 69 69 68 67 66 63 63 64 65 66 67 66 66 67 67 67 67 67 66 66 66 67 68 68 69 69 69 70 70 71 72 74
67 68 67 68 68 67 68 67 67 66 65 64 63 63 64 65 65 66 66 66 66 66 66 66 66 66 66 67 67 68 69 68 68 69 70 70 71 72
66 66 66 66 66 66 66 65 64 64 64 63 63 62 63 63 64 64 64 64 64 64 64 65 65 65 66 67 67 68 68 68 68 68 69 69 70 71
64 64 64 65 64 63 63 62 62 62 62 62 61 61 61 61 62 63 63 63 63 63 63 63 64 64 65 66 67 67 67 68 68 67 68 68 69 70
61 61 61 60 60 61 60 60 60 60 60 59 59 59 59 60 61 62 62 62 61 61 63 62 64 64 64 65 66 66 66 67 66 66 67 68 69 69
58 57 57 57 58 58 58 59 59 58 58 58 58 57 58 59 60 60 60 61 60 60 62 61 62 63 63 63 64 65 65 65 65 65 66 66 67 68
55 55 54 54 54 54 55 55 55 55 55 56 56 56 57 58 58 59 59 59 58 59 60 60 59 60 60 60 61 62 62 63 63 64 64 65 65 65
53 52 52 51 52 53 53 52 52 52 54 55 55 55 54 55 56 57 57 57 56 55 57 58 57 58 57 56 57 58 59 60 61 62 63 63 63 63
49 49 49 49 50 50 50 50 50 50 51 52 52 53 52 53 54 54 54 55 54 53 53 55 55 55 53 52 53 54 56 57 59 59 59 59 59 58
47 46 47 48 48 48 48 48 48 49 49 49 49 49 50 50 51 51 52 52 52 50 51 52 51 51 51 49 49 51 53 55 56 56 55 55 54 54
44 44 45 46 46 46 46 46 47 47 47 46 46 46 47 47 47 48 48 48 48 47 47 49 49 49 49 48 47 49 51 52 53 52 51 50 50 49
43 43 43 44 44 44 44 44 45 45 45 44 43 43 44 44 44 44 45 45 45 45 46 47 47 47 48 48 47 48 49 49 49 48 48 47 46 44
41 41 41 41 42 42 42 42 42 42 42 41 40 40 41 42 42 42 43 43 43 43 45 46 47 47 47 47 47 47 47 47 46 46 45 43 42 41
39 39 39 39 39 39 39 39 40 40 39 38 38 38 38 39 39 40 41 41 41 42 43 45 46 46 46 47 46 46 45 44 43 43 42 40 39 38
37 36 36 36 37 37 37 37 38 37 37 37 36 36 37 37 38 39 39 39 40 40 41 43 45 46 45 45 46 45 44 43 41 41 39 37 36 35
34 34 35 35 36 36 35 35 35 34 34 34 34 35 36 36 36 37 38 38 38 39 40 41 43 43 43 43 42 45 43 41 40 38 36 33 31 31
33 33 34 34 34 33 33 33 33 33 33 33 33 34 34 34 35 36 36 37 37 38 38 39 41 41 42 41 40 40 41 38 35 34 32 30 27 28
32 33 33 33 32 32 31 32 32 32 32 32 32 33 33 33 34 34 35 35 36 36 36 37 38 39 39 38 37 35 35 33 31 30 29 27 26 27
31 31 31 31 31 30 30 30 30 30 30 31 31 31 32 33 33 33 33 34 34 35 35 36 36 37 36 36 34 31 30 29 27 26 25 24 25 27
29 29 29 28 28 27 27 27 28 28 29 29 29 30 31 32 32 32 32 32 33 33 33 34 34 34 34 33 31 29 27 25 23 22 22 22 24 27
Wind_Direction
280 280 280 280 280 280 279 279 278 278 277 277 277 277 276 276 275 275 275 275 275 275 275 274 274 273 273 272 271 271 271 271 269 268 267 266 265 263
280 280 280 279 279 279 279 279 278 277 276 276 275 275 275 275 275 274 274 274 275 275 275 275 274 274 273 273 272 272 272 272 270 270 269 268 266 265
279 279 279 279 278 279 279 279 278 278 277 276 275 274 274 274 274 274 273 273 274 274 275 275 275 274 274 273 273 273 273 272 272 271 270 269 268 267
279 279 279 278 278 278 278 278 277 277 277 276 275 275 274 274 273 273 274 274 274 274 275 275 275 275 274 274 274 274 274 273 272 272 271 270 269 268
280 280 279 279 279 278 277 277 276 276 276 275 275 274 274 273 273 273 274 274 274 274 274 275 275 275 275 275 275 275 274 274 273 273 272 272 271 269
280 280 279 278 278 278 277 277 277 276 276 276 275 274 274 273 273 274 273 274 274 274 274 274 275 276 276 276 276 276 275 275 274 274 274 273 272 270
280 280 279 278 278 277 277 277 276 276 276 276 275 274 274 274 273 273 273 273 273 274 274 275 276 277 277 277 277 276 276 276 275 275 274 274 273 271
281 281 280 278 277 276 276 276 276 276 275 275 275 275 274 274 273 272 272 273 273 274 275 276 277 277 278 277 277 277 276 276 276 276 276 275 274 272
282 282 280 278 277 277 276 276 276 275 275 275 275 275 274 273 272 272 273 274 274 274 275 277 277 278 277 277 277 276 276 276 276 276 276 276 274 272
282 281 280 279 278 278 277 277 277 276 276 275 275 274 274 273 273 273 273 274 274 276 277 278 278 278 278 278 278 277 276 276 276 276 276 276 274 273
283 282 281 280 279 278 278 277 277 276 276 276 277 275 274 274 273 273 274 275 276 276 278 279 279 280 280 280 280 279 278 278 277 277 277 276 275 272
283 282 281 281 280 279 278 278 277 277 277 277 277 276 275 275 275 275 276 277 277 278 278 279 280 282 282 282 281 280 280 279 279 279 278 277 275 271
283 282 281 281 280 280 279 279 278 278 278 278 277 276 276 276 276 277 278 279 279 279 279 280 281 282 284 283 282 282 282 281 280 280 279 277 274 271
284 283 282 282 282 281 280 280 279 280 280 279 278 277 277 276 276 278 279 280 280 280 280 281 282 283 284 285 285 284 283 283 282 280 278 276 273 269
285 284 284 284 283 282 282 281 281 281 280 280 279 278 277 276 277 278 279 281 281 281 281 282 284 285 286 287 287 286 285 284 282 279 276 274 270 267
287 286 285 285 284 284 283 282 282 281 281 281 279 278 278 278 278 279 280 281 282 282 282 283 285 287 288 289 290 289 287 286 282 279 276 272 268 264
289 288 286 286 286 286 284 284 283 283 282 281 279 279 279 280 280 280 281 282 283 283 283 285 286 288 289 291 291 290 289 287 283 278 274 270 265 261
291 290 288 287 287 287 286 284 284 283 282 281 280 280 281 281 281 281 282 284 285 285 285 285 287 288 289 291 292 291 290 288 283 277 272 269 264 257
293 291 290 290 290 288 287 285 285 284 283 282 282 282 283 283 283 283 285 286 286 287 287 288 289 290 290 291 291 290 290 287 282 275 270 266 261 250
296 294 292 292 291 289 287 286 285 285 284 284 284 284 285 285 285 286 286 286 287 288 289 290 291 291 293 293 292 290 289 287 280 271 266 263 254 242
298 297 295 294 292 290 288 287 286 285 285 285 285 286 287 287 288 288 288 287 288 289 290 291 292 292 294 295 295 293 289 285 278 268 261 256 245 235
301 299 297 295 293 291 289 288 287 286 286 287 287 287 288 289 290 289 289 289 289 290 291 292 292 294 295 296 296 292 287 283 277 267 257 248 237 228
305 303 300 298 296 294 291 290 289 289 289 289 288 289 290 291 291 290 290 290 291 291 292 293 294 295 295 296 295 290 285 279 271 262 251 239 232 220